This demonstration page uses our WeatherBlox Daily Observations layout. Learn more.

Left ArrowRight Arrow

39.51506, -84.39828

Hourly Observations for March 26, 2020

Temp ( °F °C ) Dew Point ( °F °C ) Humidity (%) Winds ( mph kmh ) Pressure ( in mb ) Visibility ( mi km ) Precip ( " mm )
12:15 am 00:15 Clear 42 5.4 39 3.8 90 90 Calm 29.98 1015 10 16.0934 0 0
12:35 am 00:35 Clear 42 5.4 39 3.9 90 90 Calm 29.98 1015 10 16.0934 0 0
12:55 am 00:55 Clear 41 5.1 39 3.8 91 91 Calm 29.97 1015 10 16.0934 0 0
1:15 am 01:15 Clear 41 5 39 3.7 91 91 Calm 29.97 1015 10 16.0934 0 0
1:35 am 01:35 Clear 40 4.7 39 3.8 94 94 Calm 29.96 1015 10 16.0934 0 0
1:55 am 01:55 Clear 40 4.3 38 3.6 95 95 Calm 29.96 1015 10 16.0934 0 0
2:15 am 02:15 Clear 40 4.5 38 3.6 94 94 Calm 29.96 1015 10 16.0934 0 0
2:35 am 02:35 Clear 40 4.7 39 3.9 95 95 Calm 29.96 1015 10 16.0934 0 0
2:55 am 02:55 Clear 40 4.5 39 3.9 96 96 Calm 29.95 1014 10 16.0934 0 0
3:15 am 03:15 Clear 39 4.1 39 3.7 97 97 Calm 29.95 1014 10 16.0934 0 0
3:35 am 03:35 Clear 39 4.1 39 3.8 98 98 Calm 29.95 1014 10 16.0934 0 0
3:55 am 03:55 Clear with Mist and Fog 39 4.1 39 4 99 99 Calm 29.95 1014 7 11.26538 0 0
4:15 am 04:15 Clear 40 4.5 40 4.4 99 99 Calm 29.95 1014 7 11.26538 0 0
4:35 am 04:35 Clear with Mist and Fog 39 4 39 3.8 99 99 Calm 29.94 1014 7 11.26538 0 0
4:55 am 04:55 Clear 39 3.9 39 3.7 99 99 Calm 29.95 1014 10 16.0934 0 0
5:15 am 05:15 Clear 39 4 39 3.8 99 99 Calm 29.95 1014 10 16.0934 0 0
5:35 am 05:35 Clear 38 3.2 37 2.9 98 98 Calm 29.95 1014 7 11.26538 0 0
5:55 am 05:55 Clear with Mist and Fog 40 4.3 40 4.2 99 99 W 3 6 29.95 1014 7 11.26538 0 0
6:15 am 06:15 Clear with Mist and Fog 38 3.3 38 3.2 99 99 Calm 29.96 1014 5 8.0467 0 0
6:35 am 06:35 Clear with Mist and Fog 37 2.7 37 2.6 99 99 Calm 29.95 1014 5 8.0467 0 0
6:55 am 06:55 Clear 40 4.7 40 4.7 100 100 WSW 5 7 29.95 1014 7 11.26538 0 0
7:15 am 07:15 Clear 39 3.8 38 3.4 97 97 SW 5 7 29.95 1014 7 11.26538 0 0
7:35 am 07:35 Sunny 40 4.5 39 4 97 97 Calm 29.95 1014 7 11.26538 0 0
7:55 am 07:55 Sunny with Mist and Fog 39 3.9 38 3.6 98 98 Calm 29.96 1015 5 8.0467 0 0
8:15 am 08:15 Sunny with Mist and Fog 39 4.1 39 3.9 99 99 Calm 29.95 1014 7 11.26538 0 0
8:35 am 08:35 Sunny 43 6.2 43 6 99 99 Calm 29.95 1014 10 16.0934 0 0
8:55 am 08:55 Sunny 46 8 44 6.8 92 92 Calm 29.93 1014 10 16.0934 0 0
9:15 am 09:15 Sunny 50 9.9 45 7.4 85 85 S 8 13 29.91 1013 10 16.0934 0 0
9:35 am 09:35 Sunny 54 12 46 7.8 76 76 SSW 8 13 29.92 1013 10 16.0934 0 0
9:55 am 09:55 Sunny 54 12.2 45 7.2 72 72 SSW 10 17 29.92 1013 10 16.0934 0 0
10:15 am 10:15 Sunny 56 13.3 46 7.8 70 70 SSW 8 13 29.92 1013 10 16.0934 0 0
10:35 am 10:35 Sunny 57 13.9 46 7.9 67 67 SW 8 13 29.93 1014 10 16.0934 0 0
10:55 am 10:55 Sunny 59 14.9 47 8.5 66 66 SSW 13 20 29.92 1013 10 16.0934 0 0
11:15 am 11:15 Sunny 60 15.7 48 9.1 65 65 SSW 10 17 29.92 1013 10 16.0934 0 0
11:35 am 11:35 Sunny 62 16.4 49 9.3 63 63 SW 10 17 29.92 1013 10 16.0934 0 0
11:55 am 11:55 Sunny 63 17 48 9 59 59 SW 12 19 29.92 1013 10 16.0934 0 0
12:15 pm 12:15 Sunny 63 17 50 10 64 64 SW 12 19 29.91 1013 10 16.0934 0 0
12:35 pm 12:35 Sunny 64 17.8 50 10.2 61 61 SW 8 13 29.9 1013 10 16.0934 0 0
12:55 pm 12:55 Sunny 64 17.7 50 9.9 60 60 S 5 7 29.88 1012 10 16.0934 0 0
1:15 pm 13:15 Partly Cloudy 66 18.7 51 10.5 59 59 SSW 8 13 29.87 1011 10 16.0934 0 0
1:35 pm 13:35 Sunny 66 19.1 51 10.5 58 58 S 9 15 29.86 1011 10 16.0934 0 0
1:55 pm 13:55 Sunny 66 18.9 51 10.6 59 59 S 6 9 29.86 1011 10 16.0934 0 0
2:15 pm 14:15 Sunny 66 19.1 50 10.2 56 56 S 8 13 29.85 1011 10 16.0934 0 0
2:35 pm 14:35 Sunny 67 19.5 51 10.5 56 56 S 8 13 29.83 1010 10 16.0934 0 0
2:55 pm 14:55 Sunny 67 19.5 50 10.1 55 55 S 10 17 29.81 1009 10 16.0934 0 0
3:15 pm 15:15 Partly Cloudy 68 19.8 50 10.1 54 54 SSE 8 13 29.76 1008 10 16.0934 0 0
3:35 pm 15:35 Sunny 69 20.6 50 10 51 51 SE 9 15 29.72 1007 10 16.0934 0 0
3:55 pm 15:55 Sunny 69 20.6 49 9.4 49 49 S 13 20 29.73 1007 10 16.0934 0 0
4:15 pm 16:15 Sunny 69 20.6 49 9.4 49 49 SSW 13 20 29.76 1008 10 16.0934 0 0
4:35 pm 16:35 Partly Cloudy 69 20.6 50 10 51 51 SSE 9 15 29.75 1008 10 16.0934 0 0
4:55 pm 16:55 Mostly Cloudy 69 20.8 50 9.8 49 49 SSW 13 20 29.75 1008 10 16.0934 0 0
5:15 pm 17:15 Sunny 69 20.8 50 9.9 50 50 SSW 12 19 29.73 1007 10 16.0934 0 0
5:35 pm 17:35 Sunny 69 20.3 51 10.6 54 54 S 17 28 29.7 1006 10 16.0934 0 0
5:55 pm 17:55 Cloudy 69 20.3 52 11.1 56 56 SSW 10 17 29.71 1006 10 16.0934 0 0
6:15 pm 18:15 Partly Cloudy 69 20.3 53 11.4 57 57 SW 9 15 29.69 1006 10 16.0934 0 0
6:35 pm 18:35 Mostly Cloudy 69 20.5 53 11.7 57 57 SSW 3 6 29.68 1005 10 16.0934 0 0
6:55 pm 18:55 Cloudy 68 19.8 53 11.7 60 60 SW 8 13 29.7 1006 10 16.0934 0 0
7:15 pm 19:15 Cloudy 67 19.4 53 11.8 62 62 SW 9 15 29.73 1007 10 16.0934 0 0
7:35 pm 19:35 Cloudy 66 18.7 54 12.1 66 66 WSW 5 7 29.74 1007 10 16.0934 0 0
7:55 pm 19:55 Cloudy 64 18 54 12.2 69 69 Calm 29.74 1007 10 16.0934 0 0
8:15 pm 20:15 Cloudy 64 17.9 54 12.2 69 69 Calm 29.74 1007 10 16.0934 0 0
8:35 pm 20:35 Cloudy 62 16.8 55 12.7 77 77 N 3 6 29.74 1007 10 16.0934 0 0
8:55 pm 20:55 Cloudy 61 16.3 55 12.9 80 80 Calm 29.73 1007 10 16.0934 0 0
9:15 pm 21:15 Cloudy 61 16.3 55 12.9 80 80 NE 3 6 29.72 1007 10 16.0934 0 0
9:35 pm 21:35 Cloudy 62 16.8 55 12.5 76 76 N 8 13 29.73 1007 10 16.0934 0 0
9:55 pm 21:55 Mostly Cloudy 62 16.4 54 12.3 77 77 NNE 6 9 29.73 1007 10 16.0934 0 0
10:15 pm 22:15 Mostly Cloudy 61 16.1 54 12.1 77 77 NE 5 7 29.72 1007 10 16.0934 0 0
10:35 pm 22:35 Cloudy 61 15.9 54 12 78 78 NNW 6 9 29.74 1007 10 16.0934 0 0
10:55 pm 22:55 Mostly Cloudy 61 15.9 53 11.8 77 77 N 7 11 29.75 1008 10 16.0934 0 0
11:15 pm 23:15 Mostly Cloudy 60 15.3 53 11.8 80 80 N 8 13 29.77 1008 10 16.0934 0 0
11:35 pm 23:35 Mostly Cloudy 59 15 54 12 82 82 N 8 13 29.78 1008 10 16.0934 0 0
11:55 pm 23:55 Cloudy 59 14.8 54 12 83 83 N 9 15 29.78 1008 10 16.0934 0 0

Powered by AerisWeather